Seward, AK

10:26 AM AKDT on October 22, 2017 (GMT -0800)
Seward

Weather History for PAWD - October, 2013

Change the Weather History Date:

Friday, October 4, 2013

  Actual Average Record
Temperature  
Mean Temperature 47 °F -  
Max Temperature 57 °F 49 °F 61 °F (1963)
Min Temperature 37 °F 37 °F 26 °F (1972)
Degree Days  
Heating Degree Days 18    
Moisture  
Dew Point 40 °F    
Average Humidity 79    
Maximum Humidity 96    
Minimum Humidity 49    
Precipitation  
Precipitation 0.01 in - - ()
Sea Level Pressure  
Sea Level Pressure 29.60 in    
Wind  
Wind Speed 6 mph (North)    
Max Wind Speed 12 mph    
Max Gust Speed 16 mph    
Visibility 10 miles    
Events      
Averages and records for this station are not official NWS values.
T = Trace of Precipitation, MM = Missing Value Source: NWS Daily Summary

Daily Weather History Graph

Daily Weather History Graph

Search for Another Location

Airport or City:

Trip Planner

Search our weather history database for the weather conditions in past years. The results will help you decide how hot, cold, wet, or windy it might be!

Date:

Astronomy

Oct. 04, 2013 Rise Set
Actual Time 8:11 AM AKDT 7:19 PM AKDT
Civil Twilight 7:29 AM AKDT 8:01 PM AKDT
Nautical Twilight 6:41 AM AKDT 8:49 PM AKDT
Astronomical Twilight 5:50 AM AKDT 9:39 PM AKDT
Moon 8:03 AM AKDT (10/4) 6:55 PM AKDT (10/4)
Length of Visible Light 12h 31m
Length of Day
11h 07m
Waning Crescent, 0% of the Moon is Illuminated
Oct 4
Waning Crescent
Oct 4
New
Oct 11
First Quarter
Oct 18
Full
Oct 26
Last Quarter

Hourly Weather History & Observations

Time (AKDT) Temp. Windchill Dew Point Humidity Pressure Visibility Wind Dir Wind Speed Gust Speed Precip Events Conditions
12:53 AM 46.0 °F 43.1 °F 39.9 °F 79% 29.47 in 10.0 mi North 5.8 mph - N/A   Mostly Cloudy
1:53 AM 46.0 °F 43.9 °F 39.9 °F 79% 29.47 in 10.0 mi NNE 4.6 mph - N/A   Scattered Clouds
2:53 AM 46.0 °F 43.9 °F 39.9 °F 79% 29.49 in 10.0 mi North 4.6 mph - N/A   Overcast
3:53 AM 45.0 °F 43.5 °F 39.9 °F 82% 29.49 in 10.0 mi NNE 3.5 mph - N/A   Clear
4:53 AM 41.0 °F - 37.9 °F 89% 29.50 in 10.0 mi Calm Calm - N/A   Clear
5:53 AM 44.1 °F 39.5 °F 39.0 °F 82% 29.51 in 10.0 mi NNE 8.1 mph - N/A   Clear
6:53 AM 44.1 °F 39.5 °F 39.0 °F 82% 29.53 in 10.0 mi NNE 8.1 mph - N/A   Clear
7:53 AM 44.1 °F 40.1 °F 37.9 °F 79% 29.55 in 10.0 mi North 6.9 mph - N/A   Partly Cloudy
8:53 AM 44.1 °F 39.5 °F 39.0 °F 82% 29.56 in 10.0 mi North 8.1 mph - N/A   Mostly Cloudy
9:53 AM 46.0 °F 40.6 °F 37.9 °F 73% 29.57 in 10.0 mi NNE 11.5 mph 16.1 mph N/A   Partly Cloudy
10:53 AM 51.1 °F - 39.0 °F 63% 29.59 in 10.0 mi NNE 8.1 mph - N/A   Clear
11:53 AM 53.1 °F - 39.0 °F 59% 29.60 in 10.0 mi North 8.1 mph - N/A   Clear
12:53 PM 55.9 °F - 39.0 °F 53% 29.62 in 10.0 mi Variable 5.8 mph - N/A   Clear
1:53 PM 57.9 °F - 39.0 °F 49% 29.62 in 10.0 mi NNE 4.6 mph - N/A   Partly Cloudy
2:53 PM 53.1 °F - 46.0 °F 77% 29.62 in 10.0 mi SSE 5.8 mph - N/A   Clear
3:53 PM 53.1 °F - 45.0 °F 74% 29.63 in 10.0 mi South 8.1 mph - N/A   Partly Cloudy
4:53 PM 52.0 °F - 44.1 °F 74% 29.64 in 10.0 mi South 5.8 mph - N/A   Clear
5:53 PM 50.0 °F - 45.0 °F 83% 29.66 in 10.0 mi SSW 5.8 mph - N/A   Clear
6:53 PM 45.0 °F - 42.1 °F 90% 29.68 in 10.0 mi Calm Calm - N/A   Clear
7:53 PM 42.1 °F 40.2 °F 39.9 °F 92% 29.70 in 10.0 mi North 3.5 mph - N/A   Clear
8:53 PM 39.9 °F 36.7 °F 37.9 °F 93% 29.71 in 10.0 mi North 4.6 mph - N/A   Clear
9:53 PM 39.0 °F 35.7 °F 37.0 °F 93% 29.73 in 10.0 mi NNW 4.6 mph - 0.01 in   Clear
10:53 PM 37.0 °F 33.3 °F 36.0 °F 96% 29.74 in 10.0 mi North 4.6 mph - N/A   Clear
11:53 PM 37.9 °F 33.5 °F 36.0 °F 93% 29.75 in 10.0 mi NNW 5.8 mph - N/A   Clear